Time,TemperatureF,DewpointF,PressureIn,WindDirection,WindDirectionDegrees,WindSpeedMPH,WindSpeedGustMPH,Humidity,HourlyPrecipIn,Conditions,Clouds,dailyrainin,SoftwareType,DateUTC
2013-07-11 03:30:00,64.3,59.7,29.61,WNW,283,0.0,0.0,85,0.00,,,0.00,Wunderground v.1.15,2013-07-11 07:30:00,
2013-07-11 03:35:00,64.0,59.4,29.61,WNW,283,0.0,0.0,85,0.00,,,0.00,Wunderground v.1.15,2013-07-11 07:35:00,
2013-07-11 03:45:00,63.6,59.3,29.61,WNW,283,0.0,0.0,86,0.00,,,0.00,Wunderground v.1.15,2013-07-11 07:45:00,
2013-07-11 03:50:00,63.4,59.1,29.61,WNW,283,0.0,0.0,86,0.00,,,0.00,Wunderground v.1.15,2013-07-11 07:50:00,
2013-07-11 03:55:00,63.2,59.3,29.61,WNW,283,0.0,0.0,87,0.00,,,0.00,Wunderground v.1.15,2013-07-11 07:55:00,
2013-07-11 04:00:00,63.1,59.2,29.61,WNW,283,0.0,0.0,87,0.00,,,0.00,Wunderground v.1.15,2013-07-11 08:00:00,
2013-07-11 04:06:00,62.9,59.3,29.62,WNW,283,0.0,1.0,88,0.00,,,0.00,Wunderground v.1.15,2013-07-11 08:06:00,
2013-07-11 04:10:00,62.7,59.1,29.62,WNW,283,0.0,0.0,88,0.00,,,0.00,Wunderground v.1.15,2013-07-11 08:10:00,
2013-07-11 04:20:00,62.4,58.8,29.62,WNW,283,0.0,0.0,88,0.00,,,0.00,Wunderground v.1.15,2013-07-11 08:20:00,
2013-07-11 04:25:00,62.2,58.6,29.62,WNW,283,0.0,0.0,88,0.00,,,0.00,Wunderground v.1.15,2013-07-11 08:25:00,
2013-07-11 04:30:00,62.1,58.8,29.62,WNW,283,0.0,0.0,89,0.00,,,0.00,Wunderground v.1.15,2013-07-11 08:30:00,
2013-07-11 04:35:00,61.9,58.6,29.62,WNW,283,0.0,0.0,89,0.00,,,0.00,Wunderground v.1.15,2013-07-11 08:35:00,
2013-07-11 04:45:00,61.6,58.6,29.62,WNW,283,0.0,1.0,90,0.00,,,0.00,Wunderground v.1.15,2013-07-11 08:45:00,
2013-07-11 04:55:00,61.3,58.7,29.63,WNW,283,0.0,0.0,91,0.00,,,0.00,Wunderground v.1.15,2013-07-11 08:55:00,
2013-07-11 05:06:00,61.1,58.5,29.63,WNW,283,0.0,0.0,91,0.00,,,0.00,Wunderground v.1.15,2013-07-11 09:06:00,
2013-07-11 05:15:00,61.0,58.4,29.62,WNW,283,0.0,0.0,91,0.00,,,0.00,Wunderground v.1.15,2013-07-11 09:15:00,
2013-07-11 05:25:00,60.7,58.1,29.63,WNW,283,0.0,0.0,91,0.00,,,0.00,Wunderground v.1.15,2013-07-11 09:25:00,
2013-07-11 05:35:00,60.5,57.9,29.63,WNW,283,0.0,0.0,91,0.00,,,0.00,Wunderground v.1.15,2013-07-11 09:35:00,
2013-07-11 05:40:00,60.5,58.2,29.63,WNW,283,0.0,0.0,92,0.00,,,0.00,Wunderground v.1.15,2013-07-11 09:40:00,
2013-07-11 05:50:00,60.3,58.0,29.63,WNW,283,0.0,0.0,92,0.00,,,0.00,Wunderground v.1.15,2013-07-11 09:50:00,
2013-07-11 05:55:00,60.3,58.0,29.64,WNW,283,0.0,0.0,92,0.00,,,0.00,Wunderground v.1.15,2013-07-11 09:55:00,
2013-07-11 06:06:00,60.3,58.0,29.64,WNW,283,0.0,0.0,92,0.00,,,0.00,Wunderground v.1.15,2013-07-11 10:06:00,
2013-07-11 06:15:00,60.3,58.0,29.65,WNW,283,0.0,0.0,92,0.00,,,0.00,Wunderground v.1.15,2013-07-11 10:15:00,
2013-07-11 06:20:00,60.5,58.5,29.65,WNW,283,0.0,0.0,93,0.00,,,0.00,Wunderground v.1.15,2013-07-11 10:20:00,
2013-07-11 06:25:00,60.7,58.4,29.66,WNW,283,0.0,0.0,92,0.00,,,0.00,Wunderground v.1.15,2013-07-11 10:25:00,
2013-07-11 06:35:00,61.4,58.7,29.66,WNW,283,0.0,1.0,91,0.00,,,0.00,Wunderground v.1.15,2013-07-11 10:35:00,
2013-07-11 06:45:00,62.1,59.1,29.66,WNW,283,0.0,0.0,90,0.00,,,0.00,Wunderground v.1.15,2013-07-11 10:45:00,
2013-07-11 06:50:00,62.4,59.4,29.66,West,271,0.0,0.0,90,0.00,,,0.00,Wunderground v.1.15,2013-07-11 10:50:00,
2013-07-11 07:00:00,63.3,60.0,29.67,South,188,0.0,0.0,89,0.00,,,0.00,Wunderground v.1.15,2013-07-11 11:00:00,
2013-07-11 07:06:00,63.8,59.9,29.67,South,188,0.0,0.0,87,0.00,,,0.00,Wunderground v.1.15,2013-07-11 11:06:00,
2013-07-11 07:15:00,64.4,60.1,29.67,West,269,1.0,1.0,86,0.00,,,0.00,Wunderground v.1.15,2013-07-11 11:15:00,
2013-07-11 07:25:00,65.0,60.4,29.68,West,269,0.0,1.0,85,0.00,,,0.00,Wunderground v.1.15,2013-07-11 11:25:00,
2013-07-11 07:30:00,65.3,60.7,29.68,West,269,0.0,0.0,85,0.00,,,0.00,Wunderground v.1.15,2013-07-11 11:30:00,
2013-07-11 07:35:00,65.5,60.9,29.68,West,261,1.0,2.0,85,0.00,,,0.00,Wunderground v.1.15,2013-07-11 11:35:00,
2013-07-11 07:45:00,66.2,61.2,29.68,West,261,0.0,1.0,84,0.00,,,0.00,Wunderground v.1.15,2013-07-11 11:45:00,
2013-07-11 07:55:00,66.6,61.3,29.68,West,273,1.0,3.0,83,0.00,,,0.00,Wunderground v.1.15,2013-07-11 11:55:00,
2013-07-11 08:00:00,66.9,61.6,29.68,NW,315,1.0,1.0,83,0.00,,,0.00,Wunderground v.1.15,2013-07-11 12:00:00,
2013-07-11 08:06:00,67.2,61.9,29.68,NW,314,1.0,1.0,83,0.00,,,0.00,Wunderground v.1.15,2013-07-11 12:06:00,
2013-07-11 08:15:00,67.6,61.9,29.69,WNW,298,1.0,1.0,82,0.00,,,0.00,Wunderground v.1.15,2013-07-11 12:15:00,
2013-07-11 08:25:00,68.2,62.5,29.69,West,263,1.0,2.0,82,0.00,,,0.00,Wunderground v.1.15,2013-07-11 12:25:00,
2013-07-11 08:30:00,68.4,62.0,29.69,WNW,296,1.0,2.0,80,0.00,,,0.00,Wunderground v.1.15,2013-07-11 12:30:00,
2013-07-11 08:35:00,68.5,62.4,29.70,West,270,2.0,2.0,81,0.00,,,0.00,Wunderground v.1.15,2013-07-11 12:35:00,
2013-07-11 08:45:00,68.3,61.9,29.70,West,281,2.0,3.0,80,0.00,,,0.00,Wunderground v.1.15,2013-07-11 12:45:00,
2013-07-11 08:55:00,68.4,62.3,29.70,West,275,2.0,2.0,81,0.00,,,0.00,Wunderground v.1.15,2013-07-11 12:55:00,
2013-07-11 09:00:00,68.6,62.2,29.70,West,279,3.0,3.0,80,0.00,,,0.00,Wunderground v.1.15,2013-07-11 13:00:00,
2013-07-11 09:06:00,68.7,62.6,29.70,West,265,3.0,3.0,81,0.00,,,0.00,Wunderground v.1.15,2013-07-11 13:06:00,
2013-07-11 09:15:00,68.9,62.5,29.70,SSW,198,2.0,4.0,80,0.00,,,0.00,Wunderground v.1.15,2013-07-11 13:15:00,
2013-07-11 09:25:00,69.6,63.2,29.70,South,180,2.0,2.0,80,0.00,,,0.00,Wunderground v.1.15,2013-07-11 13:25:00,
2013-07-11 09:35:00,69.9,63.1,29.70,West,260,1.0,3.0,79,0.00,,,0.00,Wunderground v.1.15,2013-07-11 13:35:00,
2013-07-11 09:40:00,70.3,63.8,29.70,West,275,1.0,1.0,80,0.00,,,0.00,Wunderground v.1.15,2013-07-11 13:40:00,
2013-07-11 09:50:00,70.6,63.4,29.70,West,268,2.0,2.0,78,0.00,,,0.00,Wunderground v.1.15,2013-07-11 13:50:00,
2013-07-11 09:55:00,70.5,63.7,29.70,WSW,240,2.0,2.0,79,0.00,,,0.00,Wunderground v.1.15,2013-07-11 13:55:00,
2013-07-11 10:00:00,70.6,63.4,29.70,SW,236,2.0,2.0,78,0.00,,,0.00,Wunderground v.1.15,2013-07-11 14:00:00,
2013-07-11 10:06:00,71.1,64.3,29.70,West,271,2.0,2.0,79,0.00,,,0.00,Wunderground v.1.15,2013-07-11 14:06:00,
2013-07-11 10:15:00,71.0,64.2,29.70,WSW,240,2.0,5.0,79,0.00,,,0.00,Wunderground v.1.15,2013-07-11 14:15:00,
2013-07-11 10:30:00,71.0,65.2,29.70,WSW,252,2.0,4.0,82,0.00,,,0.00,Wunderground v.1.15,2013-07-11 14:30:00,
2013-07-11 10:35:00,71.5,64.6,29.70,ENE,71,2.0,4.0,79,0.00,,,0.00,Wunderground v.1.15,2013-07-11 14:35:00,
2013-07-11 10:45:00,71.1,63.5,29.70,WSW,247,3.0,4.0,77,0.00,,,0.00,Wunderground v.1.15,2013-07-11 14:45:00,
2013-07-11 10:55:00,71.8,64.6,29.70,East,82,2.0,3.0,78,0.00,,,0.00,Wunderground v.1.15,2013-07-11 14:55:00,
2013-07-11 11:00:00,72.0,64.8,29.70,ENE,78,2.0,2.0,78,0.00,,,0.00,Wunderground v.1.15,2013-07-11 15:00:00,
2013-07-11 11:06:00,72.5,64.1,29.70,NE,53,2.0,2.0,75,0.00,,,0.00,Wunderground v.1.15,2013-07-11 15:06:00,
2013-07-11 11:15:00,72.3,65.1,29.70,NNW,338,2.0,5.0,78,0.00,,,0.00,Wunderground v.1.15,2013-07-11 15:15:00,
2013-07-11 11:25:00,72.6,64.2,29.71,NE,54,2.0,3.0,75,0.00,,,0.00,Wunderground v.1.15,2013-07-11 15:25:00,
2013-07-11 11:45:00,72.6,65.0,29.71,ENE,76,3.0,3.0,77,0.00,,,0.00,Wunderground v.1.15,2013-07-11 15:45:00,
2013-07-11 11:55:00,72.9,65.3,29.71,NNW,348,2.0,3.0,77,0.00,,,0.00,Wunderground v.1.15,2013-07-11 15:55:00,
2013-07-11 12:06:00,72.9,65.3,29.71,WNW,283,2.0,3.0,77,0.00,,,0.00,Wunderground v.1.15,2013-07-11 16:06:00,
2013-07-11 12:15:00,73.0,65.0,29.71,WNW,293,2.0,5.0,76,0.00,,,0.00,Wunderground v.1.15,2013-07-11 16:15:00,
2013-07-11 12:25:00,73.0,64.6,29.71,NW,308,2.0,4.0,75,0.00,,,0.00,Wunderground v.1.15,2013-07-11 16:25:00,
2013-07-11 12:35:00,73.1,65.5,29.71,SE,135,2.0,2.0,77,0.00,,,0.00,Wunderground v.1.15,2013-07-11 16:35:00,
2013-07-11 12:45:00,73.8,65.4,29.71,West,277,2.0,5.0,75,0.00,,,0.00,Wunderground v.1.15,2013-07-11 16:45:00,
2013-07-11 12:50:00,73.7,64.9,29.71,WNW,284,2.0,2.0,74,0.00,,,0.00,Wunderground v.1.15,2013-07-11 16:50:00,
2013-07-11 12:55:00,73.5,63.9,29.71,NE,44,2.0,2.0,72,0.00,,,0.00,Wunderground v.1.15,2013-07-11 16:55:00,
2013-07-11 13:06:00,74.0,66.0,29.71,WNW,300,2.0,2.0,76,0.00,,,0.00,Wunderground v.1.15,2013-07-11 17:06:00,
2013-07-11 13:15:00,73.7,64.5,29.71,WNW,294,2.0,2.0,73,0.00,,,0.00,Wunderground v.1.15,2013-07-11 17:15:00,
2013-07-11 13:25:00,74.5,64.1,29.71,WNW,283,2.0,5.0,70,0.00,,,0.00,Wunderground v.1.15,2013-07-11 17:25:00,
2013-07-11 13:35:00,74.9,64.9,29.70,North,355,3.0,3.0,71,0.00,,,0.00,Wunderground v.1.15,2013-07-11 17:35:00,
2013-07-11 13:45:00,74.5,64.5,29.70,NNE,32,3.0,3.0,71,0.00,,,0.00,Wunderground v.1.15,2013-07-11 17:45:00,
2013-07-11 13:50:00,74.7,64.7,29.70,North,5,2.0,2.0,71,0.00,,,0.00,Wunderground v.1.15,2013-07-11 17:50:00,
2013-07-11 13:55:00,75.0,64.5,29.70,NNE,13,2.0,2.0,70,0.00,,,0.00,Wunderground v.1.15,2013-07-11 17:55:00,
2013-07-11 14:06:00,75.3,63.6,29.70,WNW,283,2.0,3.0,67,0.00,,,0.00,Wunderground v.1.15,2013-07-11 18:06:00,
2013-07-11 14:15:00,75.6,65.5,29.70,West,281,2.0,2.0,71,0.00,,,0.00,Wunderground v.1.15,2013-07-11 18:15:00,
2013-07-11 14:20:00,75.6,64.3,29.70,NE,37,2.0,2.0,68,0.00,,,0.00,Wunderground v.1.15,2013-07-11 18:20:00,
2013-07-11 14:25:00,75.8,66.1,29.70,West,260,2.0,2.0,72,0.00,,,0.00,Wunderground v.1.15,2013-07-11 18:25:00,
2013-07-11 14:40:00,76.1,66.4,29.70,WNW,296,2.0,5.0,72,0.00,,,0.00,Wunderground v.1.15,2013-07-11 18:40:00,
2013-07-11 14:50:00,75.9,64.2,29.70,WNW,294,3.0,3.0,67,0.00,,,0.00,Wunderground v.1.15,2013-07-11 18:50:00,
2013-07-11 14:55:00,76.0,66.7,29.70,West,276,3.0,3.0,73,0.00,,,0.00,Wunderground v.1.15,2013-07-11 18:55:00,
2013-07-11 15:10:00,76.0,64.7,29.70,North,11,2.0,3.0,68,0.00,,,0.00,Wunderground v.1.15,2013-07-11 19:10:00,
2013-07-11 15:15:00,76.5,65.1,29.70,West,271,2.0,3.0,68,0.00,,,0.00,Wunderground v.1.15,2013-07-11 19:15:00,
2013-07-11 15:20:00,76.7,64.0,29.70,NNE,12,2.0,2.0,65,0.00,,,0.00,Wunderground v.1.15,2013-07-11 19:20:00,
2013-07-11 15:35:00,77.5,65.7,29.70,West,273,2.0,4.0,67,0.00,,,0.00,Wunderground v.1.15,2013-07-11 19:35:00,
2013-07-11 15:45:00,77.6,64.0,29.70,WNW,288,2.0,2.0,63,0.00,,,0.00,Wunderground v.1.15,2013-07-11 19:45:00,
2013-07-11 15:55:00,77.8,63.7,29.70,West,280,2.0,2.0,62,0.00,,,0.00,Wunderground v.1.15,2013-07-11 19:55:00,
2013-07-11 16:00:00,77.9,65.2,29.70,West,259,1.0,6.0,65,0.00,,,0.00,Wunderground v.1.15,2013-07-11 20:00:00,
2013-07-11 16:06:00,78.0,65.7,29.70,WNW,290,1.0,6.0,66,0.00,,,0.00,Wunderground v.1.15,2013-07-11 20:06:00,
2013-07-11 16:15:00,78.1,65.8,29.70,NNE,17,2.0,4.0,66,0.00,,,0.00,Wunderground v.1.15,2013-07-11 20:15:00,
2013-07-11 16:25:00,77.9,63.4,29.70,WSW,248,2.0,3.0,61,0.00,,,0.00,Wunderground v.1.15,2013-07-11 20:25:00,
2013-07-11 16:35:00,78.2,63.6,29.71,WNW,294,1.0,2.0,61,0.00,,,0.00,Wunderground v.1.15,2013-07-11 20:35:00,
2013-07-11 16:50:00,78.2,64.6,29.71,NNE,19,2.0,2.0,63,0.00,,,0.00,Wunderground v.1.15,2013-07-11 20:50:00,
2013-07-11 17:00:00,78.1,64.0,29.70,WNW,288,2.0,4.0,62,0.00,,,0.00,Wunderground v.1.15,2013-07-11 21:00:00,
2013-07-11 17:06:00,77.8,63.3,29.71,West,273,2.0,4.0,61,0.00,,,0.00,Wunderground v.1.15,2013-07-11 21:06:00,
2013-07-11 17:15:00,78.1,63.1,29.71,NNW,344,1.0,2.0,60,0.00,,,0.00,Wunderground v.1.15,2013-07-11 21:15:00,
2013-07-11 17:25:00,78.5,63.5,29.71,NNE,33,1.0,1.0,60,0.00,,,0.00,Wunderground v.1.15,2013-07-11 21:25:00,
2013-07-11 17:35:00,78.8,64.2,29.71,WSW,252,1.0,2.0,61,0.00,,,0.00,Wunderground v.1.15,2013-07-11 21:35:00,
2013-07-11 17:45:00,79.4,65.7,29.71,WSW,251,1.0,3.0,63,0.00,,,0.00,Wunderground v.1.15,2013-07-11 21:45:00,
2013-07-11 18:00:00,79.2,63.1,29.71,NW,305,1.0,1.0,58,0.00,,,0.00,Wunderground v.1.15,2013-07-11 22:00:00,
2013-07-11 18:06:00,79.3,65.6,29.71,NW,311,1.0,1.0,63,0.00,,,0.00,Wunderground v.1.15,2013-07-11 22:06:00,
2013-07-11 18:15:00,79.0,63.9,29.71,West,269,1.0,1.0,60,0.00,,,0.00,Wunderground v.1.15,2013-07-11 22:15:00,
2013-07-11 18:30:00,78.3,63.3,29.71,NW,304,1.0,1.0,60,0.00,,,0.00,Wunderground v.1.15,2013-07-11 22:30:00,
2013-07-11 18:40:00,78.5,64.9,29.71,WSW,250,0.0,0.0,63,0.00,,,0.00,Wunderground v.1.15,2013-07-11 22:40:00,
2013-07-11 18:55:00,78.1,63.6,29.72,WSW,250,1.0,1.0,61,0.00,,,0.00,Wunderground v.1.15,2013-07-11 22:55:00,
2013-07-11 19:06:00,78.5,63.5,29.72,WSW,250,0.0,0.0,60,0.00,,,0.00,Wunderground v.1.15,2013-07-11 23:06:00,
2013-07-11 19:15:00,78.7,65.0,29.72,WSW,250,0.0,0.0,63,0.00,,,0.00,Wunderground v.1.15,2013-07-11 23:15:00,
2013-07-11 19:20:00,78.5,64.4,29.72,West,275,0.0,0.0,62,0.00,,,0.00,Wunderground v.1.15,2013-07-11 23:20:00,
2013-07-11 19:30:00,79.3,66.5,29.72,West,277,0.0,0.0,65,0.00,,,0.00,Wunderground v.1.15,2013-07-11 23:30:00,
2013-07-11 19:35:00,79.8,66.5,29.72,West,277,0.0,0.0,64,0.00,,,0.00,Wunderground v.1.15,2013-07-11 23:35:00,
2013-07-11 19:45:00,80.3,66.6,29.73,West,277,0.0,0.0,63,0.00,,,0.00,Wunderground v.1.15,2013-07-11 23:45:00,
2013-07-11 19:55:00,79.7,67.3,29.73,West,277,0.0,0.0,66,0.00,,,0.00,Wunderground v.1.15,2013-07-11 23:55:00,
2013-07-11 20:06:00,77.8,68.0,29.73,SE,139,0.0,0.0,72,0.00,,,0.00,Wunderground v.1.15,2013-07-12 00:06:00,
2013-07-11 20:15:00,76.1,67.2,29.73,SE,139,0.0,0.0,74,0.00,,,0.00,Wunderground v.1.15,2013-07-12 00:15:00,
2013-07-11 20:20:00,75.3,67.6,29.73,SE,139,0.0,0.0,77,0.00,,,0.00,Wunderground v.1.15,2013-07-12 00:20:00,
2013-07-11 20:30:00,74.1,68.3,29.73,SE,139,0.0,0.0,82,0.00,,,0.00,Wunderground v.1.15,2013-07-12 00:30:00,
2013-07-11 20:35:00,73.5,67.7,29.73,SE,139,0.0,0.0,82,0.00,,,0.00,Wunderground v.1.15,2013-07-12 00:35:00,
2013-07-11 20:45:00,72.5,67.4,29.73,SE,139,0.0,0.0,84,0.00,,,0.00,Wunderground v.1.15,2013-07-12 00:45:00,
2013-07-11 21:00:00,70.7,66.3,29.73,SE,139,0.0,0.0,86,0.00,,,0.00,Wunderground v.1.15,2013-07-12 01:00:00,
2013-07-11 21:10:00,69.7,66.3,29.73,SE,139,0.0,0.0,89,0.00,,,0.00,Wunderground v.1.15,2013-07-12 01:10:00,
2013-07-11 21:20:00,68.6,64.9,29.73,SE,139,0.0,0.0,88,0.00,,,0.00,Wunderground v.1.15,2013-07-12 01:20:00,
2013-07-11 21:25:00,68.2,64.8,29.73,SE,139,0.0,0.0,89,0.00,,,0.00,Wunderground v.1.15,2013-07-12 01:25:00,
2013-07-11 21:35:00,67.7,65.0,29.74,SE,139,0.0,0.0,91,0.00,,,0.00,Wunderground v.1.15,2013-07-12 01:35:00,
2013-07-11 21:40:00,67.4,64.7,29.74,SE,139,0.0,0.0,91,0.00,,,0.00,Wunderground v.1.15,2013-07-12 01:40:00,
2013-07-11 21:45:00,67.2,64.8,29.74,SE,139,0.0,0.0,92,0.00,,,0.00,Wunderground v.1.15,2013-07-12 01:45:00,
2013-07-11 21:55:00,66.7,64.3,29.74,SE,139,0.0,0.0,92,0.00,,,0.00,Wunderground v.1.15,2013-07-12 01:55:00,
2013-07-11 22:06:00,66.2,63.8,29.75,SE,139,0.0,0.0,92,0.00,,,0.00,Wunderground v.1.15,2013-07-12 02:06:00,
2013-07-11 22:15:00,65.6,63.5,29.75,SE,139,0.0,0.0,93,0.00,,,0.00,Wunderground v.1.15,2013-07-12 02:15:00,
2013-07-11 22:25:00,65.2,63.1,29.75,SE,139,0.0,0.0,93,0.00,,,0.00,Wunderground v.1.15,2013-07-12 02:25:00,
2013-07-11 22:40:00,64.7,62.9,29.75,SE,139,0.0,0.0,94,0.00,,,0.00,Wunderground v.1.15,2013-07-12 02:40:00,
2013-07-11 22:45:00,64.6,62.8,29.75,SE,139,0.0,0.0,94,0.00,,,0.00,Wunderground v.1.15,2013-07-12 02:45:00,
2013-07-11 22:55:00,64.4,62.9,29.75,SE,139,0.0,0.0,95,0.00,,,0.00,Wunderground v.1.15,2013-07-12 02:55:00,
2013-07-11 23:06:00,64.1,62.6,29.75,SE,139,0.0,0.0,95,0.00,,,0.00,Wunderground v.1.15,2013-07-12 03:06:00,
2013-07-11 23:15:00,63.9,62.4,29.75,SE,139,0.0,0.0,95,0.00,,,0.00,Wunderground v.1.15,2013-07-12 03:15:00,
2013-07-11 23:20:00,63.7,62.2,29.75,SE,139,0.0,0.0,95,0.00,,,0.00,Wunderground v.1.15,2013-07-12 03:20:00,
2013-07-11 23:25:00,63.6,62.1,29.75,SE,139,0.0,0.0,95,0.00,,,0.00,Wunderground v.1.15,2013-07-12 03:25:00,
2013-07-11 23:35:00,63.5,62.0,29.75,SE,139,0.0,0.0,95,0.00,,,0.00,Wunderground v.1.15,2013-07-12 03:35:00,
2013-07-11 23:45:00,63.4,62.2,29.75,SE,139,0.0,0.0,96,0.00,,,0.00,Wunderground v.1.15,2013-07-12 03:45:00,